Hundvaag 1 weather for Nov 1993
Month no. 77
Obs.
Da.
Temp. Dew Point Precip. Wind
Speed
Wind gusts Cloud cover Press. Humidity Wind dir. Sunny OPT
01.11.1993 1,9   0,0             1  
02.11.1993 -0,8   0,0             1  
03.11.1993 -2,5   0,0             1  
04.11.1993 0,2   0,0                
05.11.1993 5,1   0,0                
06.11.1993 4,2   0,0                
07.11.1993 3,0   0,0                
08.11.1993 3,0   0,0                
09.11.1993 2,8   0,0                
10.11.1993 6,3   1,0                
11.11.1993 6,9   1,2                
12.11.1993 3,2   3,0                
13.11.1993 3,9   22,2             1  
14.11.1993 3,9   3,1                
15.11.1993 3,2   0,5             1  
16.11.1993 4,5   0,0                
17.11.1993 5,1   0,0             1  
18.11.1993 2,9   0,0             1  
19.11.1993 -2,4   0,0             1  
20.11.1993 1,2   0,0             1  
21.11.1993 -2,3   0,0             1  
22.11.1993 -1,0   0,0             1  
23.11.1993 1,2   0,0                
24.11.1993 0,2   0,6                
25.11.1993 1,2   0,0             1  
26.11.1993 3,0   1,2             1  
27.11.1993 -1,1   0,2             1  
28.11.1993 -3,0   0,0             1  
29.11.1993 -5,0   0,0                
30.11.1993 0,3   0,0                
                       
Avrg/Sum 1,6   33,0             15